Willmar, MN

4:33 AM CST on December 09, 2019 (GMT -0600)
Willmar

Weather History for KBDH - November, 2019

Change the Weather History Date:

Monday, November 11, 2019

  Actual Average (KBBB) Record (KBBB)
Temperature  
Mean Temperature 10 °F -  
Max Temperature 17 °F 38 °F 71 °F (2005)
Min Temperature 3 °F 22 °F -1 °F (1986)
Degree Days  
Heating Degree Days 55    
Moisture  
Dew Point 3 °F    
Average Humidity 66    
Maximum Humidity 85    
Minimum Humidity 49    
Precipitation  
Precipitation 0.00 in - - ()
Sea Level Pressure  
Sea Level Pressure 30.60 in    
Wind  
Wind Speed 12 mph ()    
Max Wind Speed 21 mph    
Max Gust Speed 28 mph    
Visibility 9.2 miles    
Events Snow    
Averages and records for this station are not official NWS values.
T = Trace of Precipitation, MM = Missing Value Source: Averaged Metar Reports

Daily Weather History Graph

Daily Weather History Graph

Search for Another Location

Airport or City:

Astronomy

Nov. 11, 2019 Rise Set
Actual Time 7:12 AM CST 4:55 PM CST
Civil Twilight 6:41 AM CST 5:27 PM CST
Nautical Twilight 6:05 AM CST 6:02 PM CST
Astronomical Twilight 5:31 AM CST 6:37 PM CST
Moon 4:55 PM CST (11/11) 5:59 AM CST (11/11)
Length of Visible Light 10h 45m
Length of Day
9h 42m
Waxing Gibbous, 99% of the Moon is Illuminated
Nov 11
Waxing Gibbous
Nov 12
Full
Nov 19
Last Quarter
Nov 26
New
Dec 4
First Quarter

Hourly Weather History & Observations

Time (CST) Temp. Windchill Dew Point Humidity Pressure Visibility Wind Dir Wind Speed Gust Speed Precip Events Conditions
12:15 AM 17.6 °F 8.2 °F 6.8 °F 63% 30.48 in 10.0 mi North 6.9 mph - N/A   Mostly Cloudy
12:16 AM 17.6 °F 7.3 °F 6.8 °F 63% 30.49 in 10.0 mi North 8.1 mph - N/A   Mostly Cloudy
12:38 AM 17.6 °F 6.4 °F 6.8 °F 63% 30.49 in 10.0 mi North 9.2 mph - N/A   Overcast
12:55 AM 17.6 °F 6.4 °F 6.8 °F 63% 30.50 in 10.0 mi North 9.2 mph - N/A   Overcast
12:56 AM 17.6 °F 5.7 °F 6.8 °F 63% 30.50 in 10.0 mi North 10.4 mph - N/A   Overcast
1:18 AM 17.6 °F 3.7 °F 6.8 °F 63% 30.51 in 10.0 mi NNW 13.8 mph - N/A   Overcast
1:35 AM 17.6 °F 6.4 °F 8.6 °F 68% 30.51 in 10.0 mi North 9.2 mph - N/A   Overcast
1:36 AM 17.6 °F 6.4 °F 8.6 °F 68% 30.51 in 10.0 mi North 9.2 mph - N/A   Overcast
1:58 AM 17.6 °F 4.3 °F 8.6 °F 68% 30.52 in 5.0 mi NNW 12.7 mph - N/A Snow Light Snow
2:15 AM 15.8 °F 2.7 °F 6.8 °F 68% 30.52 in 10.0 mi NNW 11.5 mph - N/A   Overcast
2:35 AM 15.8 °F 2.1 °F 6.8 °F 68% 30.52 in 10.0 mi NNW 12.7 mph - N/A   Mostly Cloudy
2:39 AM 15.8 °F 2.1 °F 6.8 °F 68% 30.53 in 10.0 mi NNW 12.7 mph - N/A   Mostly Cloudy
2:56 AM 14.0 °F -2.5 °F 6.8 °F 73% 30.53 in 10.0 mi NNW 17.3 mph 21.9 mph N/A   Mostly Cloudy
3:15 AM 14.0 °F -0.8 °F 3.2 °F 62% 30.54 in 10.0 mi NNW 13.8 mph 21.9 mph N/A   Mostly Cloudy
3:16 AM 14.0 °F -1.4 °F 3.2 °F 62% 30.54 in 10.0 mi NNW 15.0 mph 21.9 mph N/A   Mostly Cloudy
3:36 AM 14.0 °F -0.2 °F 3.2 °F 62% 30.55 in 10.0 mi North 12.7 mph - N/A   Scattered Clouds
3:55 AM 14.0 °F 0.5 °F 5.0 °F 67% 30.55 in 10.0 mi North 11.5 mph - N/A   Mostly Cloudy
3:56 AM 14.0 °F 1.2 °F 5.0 °F 67% 30.55 in 10.0 mi North 10.4 mph - N/A   Mostly Cloudy
4:16 AM 14.0 °F -0.2 °F 5.0 °F 67% 30.56 in 10.0 mi NNW 12.7 mph - N/A   Overcast
4:35 AM 14.0 °F -0.8 °F 6.8 °F 73% 30.56 in 10.0 mi NW 13.8 mph - N/A   Overcast
4:36 AM 14.0 °F -1.4 °F 6.8 °F 73% 30.56 in 10.0 mi NW 15.0 mph - N/A   Overcast
4:57 AM 14.0 °F -0.8 °F 3.2 °F 62% 30.57 in 10.0 mi NW 13.8 mph 18.4 mph N/A   Overcast
5:15 AM 12.2 °F -2.5 °F 1.4 °F 62% 30.58 in 10.0 mi North 12.7 mph - N/A   Mostly Cloudy
5:16 AM 12.2 °F -1.8 °F 1.4 °F 62% 30.58 in 10.0 mi North 11.5 mph - N/A   Mostly Cloudy
5:37 AM 12.2 °F -0.2 °F 1.4 °F 62% 30.58 in 10.0 mi North 9.2 mph - N/A   Mostly Cloudy
5:55 AM 12.2 °F -3.1 °F 3.2 °F 67% 30.58 in 10.0 mi NNW 13.8 mph - N/A   Overcast
5:56 AM 12.2 °F -3.7 °F 3.2 °F 67% 30.58 in 10.0 mi NNW 15.0 mph - N/A   Overcast
6:18 AM 12.2 °F -3.7 °F 3.2 °F 67% 30.58 in 10.0 mi NW 15.0 mph - N/A   Overcast
6:35 AM 12.2 °F -1.8 °F 3.2 °F 67% 30.58 in 10.0 mi NW 11.5 mph 17.3 mph N/A   Overcast
6:36 AM 12.2 °F -2.5 °F 3.2 °F 67% 30.58 in 10.0 mi NW 12.7 mph 17.3 mph N/A   Overcast
6:58 AM 12.2 °F -2.5 °F 3.2 °F 67% 30.59 in 10.0 mi NW 12.7 mph - N/A   Overcast
7:15 AM 14.0 °F -0.2 °F 3.2 °F 62% 30.59 in 10.0 mi NW 12.7 mph - N/A   Overcast
7:16 AM 14.0 °F 0.5 °F 3.2 °F 62% 30.59 in 10.0 mi NW 11.5 mph - N/A   Overcast
7:38 AM 12.2 °F -2.5 °F 5.0 °F 73% 30.60 in 10.0 mi WNW 12.7 mph - N/A   Overcast
7:55 AM 12.2 °F -3.7 °F 6.8 °F 79% 30.60 in 10.0 mi NW 15.0 mph 19.6 mph N/A   Overcast
7:56 AM 12.2 °F -3.7 °F 6.8 °F 79% 30.60 in 10.0 mi WNW 15.0 mph 19.6 mph N/A   Overcast
8:18 AM 12.2 °F -3.1 °F 6.8 °F 79% 30.61 in 10.0 mi WNW 13.8 mph - N/A   Overcast
8:35 AM 12.2 °F -4.3 °F 6.8 °F 79% 30.62 in 10.0 mi WNW 16.1 mph 20.7 mph N/A   Overcast
8:36 AM 12.2 °F -4.3 °F 6.8 °F 79% 30.62 in 10.0 mi WNW 16.1 mph 20.7 mph N/A   Overcast
8:58 AM 12.2 °F -3.7 °F 6.8 °F 79% 30.62 in 10.0 mi WNW 15.0 mph 19.6 mph N/A   Mostly Cloudy
9:15 AM 12.2 °F -4.3 °F 6.8 °F 79% 30.62 in 7.0 mi NW 16.1 mph - N/A   Overcast
9:38 AM 12.2 °F -3.7 °F 6.8 °F 79% 30.63 in 5.0 mi NW 15.0 mph - N/A   Haze
9:55 AM 14.0 °F -2.0 °F 6.8 °F 73% 30.62 in 5.0 mi NW 16.1 mph - N/A   Haze
9:56 AM 14.0 °F -2.0 °F 6.8 °F 73% 30.62 in 5.0 mi NW 16.1 mph - N/A   Haze
10:18 AM 14.0 °F -2.0 °F 6.8 °F 73% 30.62 in 7.0 mi NNW 16.1 mph 20.7 mph N/A   Mostly Cloudy
10:35 AM 15.8 °F 0.9 °F 5.0 °F 62% 30.62 in 10.0 mi NW 15.0 mph 23.0 mph N/A   Scattered Clouds
10:36 AM 15.8 °F 0.3 °F 5.0 °F 62% 30.62 in 10.0 mi NW 16.1 mph - N/A   Scattered Clouds
10:58 AM 15.8 °F -0.2 °F 5.0 °F 62% 30.62 in 10.0 mi NW 17.3 mph 23.0 mph N/A   Scattered Clouds
11:15 AM 14.0 °F -3.4 °F 3.2 °F 62% 30.63 in 4.0 mi NW 19.6 mph - N/A Snow Light Snow
11:35 AM 14.0 °F -3.0 °F 3.2 °F 62% 30.62 in 4.0 mi NW 18.4 mph 24.2 mph N/A   Haze
11:39 AM 14.0 °F -3.9 °F 3.2 °F 62% 30.62 in 7.0 mi NW 20.7 mph - N/A   Scattered Clouds
11:55 AM 14.0 °F -2.5 °F 3.2 °F 62% 30.62 in 7.0 mi NW 17.3 mph 24.2 mph N/A Snow Light Snow
12:15 PM 15.8 °F -1.5 °F 3.2 °F 58% 30.62 in 3.0 mi NNW 20.7 mph 27.6 mph N/A   Haze
12:16 PM 15.8 °F -1.1 °F 3.2 °F 58% 30.61 in 3.0 mi NW 19.6 mph 27.6 mph N/A   Haze
12:36 PM 14.0 °F -3.0 °F 3.2 °F 62% 30.61 in 5.0 mi NNW 18.4 mph 24.2 mph N/A Snow Light Snow
12:55 PM 15.8 °F -1.1 °F 1.4 °F 53% 30.61 in 7.0 mi NW 19.6 mph 25.3 mph N/A   Scattered Clouds
12:56 PM 14.0 °F -3.9 °F 1.4 °F 57% 30.61 in 7.0 mi NNW 20.7 mph 25.3 mph N/A   Scattered Clouds
1:16 PM 14.0 °F -2.5 °F 1.4 °F 57% 30.61 in 7.0 mi NNW 17.3 mph 21.9 mph N/A   Scattered Clouds
1:36 PM 14.0 °F -3.9 °F -0.4 °F 53% 30.60 in 10.0 mi NNW 20.7 mph 25.3 mph N/A   Scattered Clouds
1:56 PM 15.8 °F -0.6 °F 1.4 °F 53% 30.60 in 10.0 mi NNW 18.4 mph 23.0 mph N/A   Clear
2:15 PM 15.8 °F -1.5 °F 1.4 °F 53% 30.60 in 7.0 mi NW 20.7 mph 24.2 mph N/A   Scattered Clouds
2:16 PM 15.8 °F -1.1 °F 1.4 °F 53% 30.60 in 7.0 mi NW 19.6 mph 24.2 mph N/A   Scattered Clouds
2:36 PM 15.8 °F -0.6 °F -0.4 °F 49% 30.60 in 10.0 mi NW 18.4 mph - N/A   Scattered Clouds
2:55 PM 15.8 °F -1.5 °F 1.4 °F 53% 30.61 in 10.0 mi NW 20.7 mph 24.2 mph N/A   Scattered Clouds
2:56 PM 15.8 °F -0.6 °F 1.4 °F 53% 30.61 in 10.0 mi NW 18.4 mph 24.2 mph N/A   Scattered Clouds
3:16 PM 15.8 °F -0.2 °F -0.4 °F 49% 30.61 in 10.0 mi NW 17.3 mph 25.3 mph N/A   Scattered Clouds
3:35 PM 14.0 °F -2.5 °F -0.4 °F 53% 30.61 in 10.0 mi NW 17.3 mph 24.2 mph N/A   Scattered Clouds
3:36 PM 14.0 °F -3.0 °F -0.4 °F 53% 30.61 in 10.0 mi NNW 18.4 mph 24.2 mph N/A   Scattered Clouds
3:57 PM 14.0 °F -3.4 °F -0.4 °F 53% 30.61 in 10.0 mi NW 19.6 mph 25.3 mph N/A   Scattered Clouds
4:15 PM 12.2 °F -4.8 °F -0.4 °F 57% 30.62 in 10.0 mi NW 17.3 mph 25.3 mph N/A   Scattered Clouds
4:16 PM 12.2 °F -4.3 °F -0.4 °F 57% 30.62 in 10.0 mi NW 16.1 mph 25.3 mph N/A   Scattered Clouds
4:37 PM 12.2 °F -4.8 °F -0.4 °F 57% 30.62 in 10.0 mi NW 17.3 mph - N/A   Clear
4:55 PM 12.2 °F -3.7 °F -0.4 °F 57% 30.62 in 10.0 mi NW 15.0 mph 19.6 mph N/A   Clear
4:56 PM 10.4 °F -5.4 °F -0.4 °F 62% 30.62 in 10.0 mi NW 13.8 mph 19.6 mph N/A   Clear
5:17 PM 10.4 °F -5.4 °F -0.4 °F 62% 30.63 in 10.0 mi NW 13.8 mph - N/A   Clear
5:36 PM 10.4 °F -6.0 °F -0.4 °F 62% 30.63 in 10.0 mi NW 15.0 mph 20.7 mph N/A   Clear
5:57 PM 10.4 °F -5.4 °F -0.4 °F 62% 30.63 in 10.0 mi NW 13.8 mph - N/A   Clear
6:15 PM 10.4 °F -5.4 °F -0.4 °F 62% 30.63 in 10.0 mi NW 13.8 mph - N/A   Clear
6:16 PM 10.4 °F -6.0 °F -0.4 °F 62% 30.63 in 10.0 mi NW 15.0 mph - N/A   Clear
6:38 PM 10.4 °F -4.1 °F -0.4 °F 62% 30.64 in 10.0 mi NW 11.5 mph - N/A   Clear
6:55 PM 8.6 °F -6.3 °F -0.4 °F 67% 30.64 in 10.0 mi NW 11.5 mph - N/A   Clear
7:15 PM 8.6 °F -4.7 °F -0.4 °F 67% 30.64 in 10.0 mi NW 9.2 mph - N/A   Clear
7:19 PM 8.6 °F -3.7 °F -0.4 °F 67% 30.64 in 10.0 mi NW 8.1 mph - N/A   Clear
7:35 PM 8.6 °F -3.7 °F -0.4 °F 67% 30.64 in 10.0 mi NW 8.1 mph - N/A   Clear
7:55 PM 8.6 °F -2.6 °F -0.4 °F 67% 30.64 in 10.0 mi NW 6.9 mph - N/A   Clear
7:59 PM 6.8 °F -4.8 °F -0.4 °F 72% 30.64 in 10.0 mi NW 6.9 mph - N/A   Clear
8:35 PM 6.8 °F -5.9 °F -0.4 °F 72% 30.64 in 10.0 mi NW 8.1 mph - N/A   Clear
8:39 PM 6.8 °F -5.9 °F -0.4 °F 72% 30.64 in 10.0 mi NW 8.1 mph - N/A   Clear
8:55 PM 6.8 °F -5.9 °F -0.4 °F 72% 30.64 in 10.0 mi NW 8.1 mph - N/A   Clear
9:15 PM 6.8 °F -3.5 °F -0.4 °F 72% 30.64 in 10.0 mi NW 5.8 mph - N/A   Clear
9:37 PM 5.0 °F -2.1 °F -0.4 °F 78% 30.64 in 10.0 mi WNW 3.5 mph - N/A   Clear
9:55 PM 6.8 °F -2.0 °F -0.4 °F 72% 30.65 in 10.0 mi WNW 4.6 mph - N/A   Clear
9:56 PM 6.8 °F -2.0 °F -0.4 °F 72% 30.65 in 10.0 mi WNW 4.6 mph - N/A   Clear
10:17 PM 5.0 °F -4.1 °F -0.4 °F 78% 30.64 in 10.0 mi WNW 4.6 mph - N/A   Clear
10:35 PM 6.8 °F -2.0 °F -0.4 °F 72% 30.64 in 10.0 mi WNW 4.6 mph - N/A   Clear
10:36 PM 6.8 °F -2.0 °F -0.4 °F 72% 30.64 in 10.0 mi WNW 4.6 mph - N/A   Clear
10:58 PM 5.0 °F -4.1 °F -0.4 °F 78% 30.64 in 10.0 mi West 4.6 mph - N/A   Clear
11:15 PM 3.2 °F -6.2 °F -2.2 °F 78% 30.63 in 10.0 mi West 4.6 mph - N/A   Clear
11:16 PM 3.2 °F -6.2 °F -2.2 °F 78% 30.63 in 10.0 mi West 4.6 mph - N/A   Clear
11:38 PM 3.2 °F -6.2 °F -0.4 °F 85% 30.63 in 10.0 mi West 4.6 mph - N/A   Clear
11:55 PM 3.2 °F -6.2 °F -0.4 °F 85% 30.63 in 10.0 mi WNW 4.6 mph - N/A   Clear
11:56 PM 3.2 °F -6.2 °F -0.4 °F 85% 30.63 in 10.0 mi WNW 4.6 mph - N/A   Clear